When you browse on this site, cookies collect data to enhance your experience and personalize the content and advertising you see.
Visit our Privacy Policy to learn more. By continuing to use the site, you agree to this use of cookies and data.
  • In Latvia
  • List of Countries
  • For 7 days
  • Water Temperature
  • Satellite Maps
  • Weather Map
  • Weather Widgets
  • user-avatar
    Login

    Hourly Weather Viedma

    Today, 27 May, Monday

    Time Temperature Precipitation Wind Pressure Humidity
    00:00 +8°C° 0 mm 2 mps 758 mmHg 65%
    01:00 +7°C° 0 mm 2 mps 758 mmHg 66%
    02:00 +7°C° 0 mm 2 mps 757 mmHg 66%
    03:00 +7°C° 0 mm 3 mps 757 mmHg 67%
    04:00 +7°C° 0 mm 3 mps 756 mmHg 68%
    05:00 +5°C° 0 mm 3 mps 756 mmHg 68%
    06:00 +6°C° 0 mm 4 mps 756 mmHg 68%
    07:00 +6°C° 0 mm 4 mps 756 mmHg 68%
    08:00 +6°C° 0 mm 4 mps 756 mmHg 69%
    09:00 +8°C° 0 mm 5 mps 756 mmHg 60%
    10:00 +11°C° 0 mm 6 mps 756 mmHg 51%
    11:00 +13°C° 0 mm 8 mps 756 mmHg 42%
    12:00 +15°C° 0 mm 8 mps 755 mmHg 40%
    13:00 +16°C° 0 mm 8 mps 754 mmHg 38%
    14:00 +17°C° 0 mm 8 mps 754 mmHg 36%
    15:00 +16°C° 0 mm 7 mps 754 mmHg 39%
    16:00 +15°C° 0 mm 5 mps 754 mmHg 42%
    17:00 +13°C° 0 mm 4 mps 754 mmHg 45%
    18:00 +13°C° 0 mm 4 mps 754 mmHg 47%
    19:00 +12°C° 0 mm 3 mps 754 mmHg 49%
    20:00 +11°C° 0 mm 3 mps 754 mmHg 51%
    21:00 +10°C° 0 mm 2 mps 755 mmHg 54%
    22:00 +10°C° 0 mm 2 mps 755 mmHg 58%
    23:00 +10°C° 0 mm 1 mps 755 mmHg 61%

    Tomorrow, 28 May, Tuesday

    Time Temperature Precipitation Wind Pressure Humidity
    00:00 +10°C° 0 mm 1 mps 755 mmHg 61%
    01:00 +10°C° 0 mm 1 mps 755 mmHg 61%
    02:00 +10°C° 0 mm 1 mps 755 mmHg 61%
    03:00 +9°C° 0 mm 2 mps 755 mmHg 59%
    04:00 +9°C° 0 mm 2 mps 755 mmHg 58%
    05:00 +9°C° 0 mm 2 mps 755 mmHg 57%
    06:00 +10°C° 0 mm 2 mps 756 mmHg 58%
    07:00 +10°C° 0 mm 3 mps 756 mmHg 59%
    08:00 +10°C° 0 mm 3 mps 756 mmHg 60%
    09:00 +11°C° 0 mm 4 mps 757 mmHg 55%
    10:00 +12°C° 0 mm 5 mps 757 mmHg 49%
    11:00 +14°C° 0 mm 6 mps 758 mmHg 44%
    12:00 +13°C° 0 mm 6 mps 758 mmHg 44%
    13:00 +12°C° 0 mm 7 mps 758 mmHg 45%
    14:00 +12°C° 0 mm 7 mps 758 mmHg 45%
    15:00 +11°C° 0 mm 6 mps 758 mmHg 48%
    16:00 +10°C° 0 mm 6 mps 759 mmHg 52%
    17:00 +9°C° 0 mm 5 mps 759 mmHg 55%
    18:00 +8°C° 0 mm 5 mps 760 mmHg 60%
    19:00 +8°C° 0 mm 4 mps 760 mmHg 65%
    20:00 +7°C° 0 mm 4 mps 761 mmHg 69%
    21:00 +8°C° 0 mm 3 mps 761 mmHg 71%
    22:00 +8°C° 0 mm 3 mps 761 mmHg 73%
    23:00 +7°C° 0 mm 3 mps 762 mmHg 75%

    Day after tomorrow, 29 May, Wednesday

    Time Temperature Precipitation Wind Pressure Humidity
    00:00 +7°C° 0 mm 2 mps 762 mmHg 78%
    01:00 +7°C° 0 mm 2 mps 762 mmHg 80%
    02:00 +6°C° 0 mm 2 mps 762 mmHg 83%
    03:00 +7°C° 0.1 mm 1 mps 762 mmHg 83%
    04:00 +7°C° 0.1 mm 1 mps 762 mmHg 83%
    05:00 +7°C° 0.1 mm 1 mps 762 mmHg 83%
    06:00 +7°C° 0.1 mm 1 mps 762 mmHg 81%
    07:00 +7°C° 0.1 mm 1 mps 762 mmHg 79%
    08:00 +8°C° 0.1 mm 1 mps 762 mmHg 77%
    09:00 +9°C° 0 mm 1 mps 763 mmHg 70%
    10:00 +10°C° 0 mm 1 mps 763 mmHg 63%
    11:00 +10°C° 0 mm 2 mps 763 mmHg 55%
    12:00 +10°C° 0 mm 2 mps 763 mmHg 53%
    13:00 +12°C° 0 mm 2 mps 762 mmHg 51%
    14:00 +12°C° 0 mm 2 mps 762 mmHg 49%
    15:00 +10°C° 0 mm 2 mps 762 mmHg 52%
    16:00 +9°C° 0 mm 2 mps 762 mmHg 55%
    17:00 +9°C° 0 mm 2 mps 762 mmHg 57%
    18:00 +8°C° 0 mm 2 mps 762 mmHg 58%
    19:00 +8°C° 0 mm 2 mps 762 mmHg 58%
    20:00 +8°C° 0 mm 2 mps 762 mmHg 59%
    21:00 +9°C° 0 mm 1 mps 763 mmHg 59%
    22:00 +8°C° 0 mm 1 mps 763 mmHg 60%
    23:00 +8°C° 0 mm 1 mps 763 mmHg 60%

    30 May, Thursday

    Time Temperature Precipitation Wind Pressure Humidity
    00:00 +8°C° 0 mm 1 mps 763 mmHg 60%
    01:00 +8°C° 0 mm 1 mps 763 mmHg 60%
    02:00 +7°C° 0 mm 0 mps 763 mmHg 60%
    03:00 +7°C° 0 mm 0 mps 763 mmHg 60%
    04:00 +8°C° 0 mm 1 mps 763 mmHg 61%
    05:00 +8°C° 0 mm 1 mps 762 mmHg 61%
    06:00 +8°C° 0 mm 1 mps 763 mmHg 61%
    07:00 +8°C° 0 mm 1 mps 763 mmHg 62%
    08:00 +8°C° 0 mm 1 mps 763 mmHg 62%
    09:00 +9°C° 0 mm 1 mps 763 mmHg 58%
    10:00 +9°C° 0 mm 2 mps 762 mmHg 53%
    11:00 +10°C° 0 mm 2 mps 762 mmHg 49%
    12:00 +10°C° 0 mm 3 mps 762 mmHg 51%
    13:00 +10°C° 0 mm 3 mps 761 mmHg 53%
    14:00 +11°C° 0 mm 3 mps 760 mmHg 56%
    15:00 +10°C° 0.2 mm 3 mps 760 mmHg 62%
    16:00 +9°C° 0.2 mm 2 mps 760 mmHg 68%
    17:00 +9°C° 0.2 mm 2 mps 760 mmHg 74%
    18:00 +9°C° 0.3 mm 2 mps 760 mmHg 76%
    19:00 +8°C° 0.3 mm 3 mps 760 mmHg 78%
    20:00 +8°C° 0.3 mm 3 mps 760 mmHg 81%
    21:00 +7°C° 0.6 mm 4 mps 760 mmHg 81%
    22:00 +7°C° 0.6 mm 4 mps 759 mmHg 81%
    23:00 +6°C° 0.6 mm 5 mps 759 mmHg 81%

    31 May, Friday

    Time Temperature Precipitation Wind Pressure Humidity
    00:00 +7°C° 0.6 mm 5 mps 759 mmHg 80%
    01:00 +7°C° 0.6 mm 5 mps 758 mmHg 79%
    02:00 +7°C° 0.6 mm 5 mps 758 mmHg 78%
    03:00 +7°C° 0.1 mm 5 mps 758 mmHg 79%
    04:00 +7°C° 0.1 mm 5 mps 757 mmHg 79%
    05:00 +7°C° 0.1 mm 5 mps 757 mmHg 80%
    06:00 +6°C° 0 mm 5 mps 756 mmHg 84%
    07:00 +6°C° 0 mm 5 mps 756 mmHg 87%
    08:00 +6°C° 0 mm 5 mps 756 mmHg 90%
    09:00 +7°C° 0 mm 6 mps 756 mmHg 86%
    10:00 +9°C° 0 mm 7 mps 755 mmHg 81%
    11:00 +10°C° 0 mm 8 mps 755 mmHg 76%
    12:00 +11°C° 0 mm 8 mps 754 mmHg 70%
    13:00 +12°C° 0 mm 8 mps 753 mmHg 65%
    14:00 +15°C° 0 mm 8 mps 753 mmHg 59%
    15:00 +14°C° 0 mm 7 mps 753 mmHg 59%
    16:00 +14°C° 0 mm 6 mps 752 mmHg 59%
    17:00 +13°C° 0 mm 5 mps 752 mmHg 58%
    18:00 +12°C° 0 mm 5 mps 753 mmHg 64%
    19:00 +11°C° 0 mm 4 mps 753 mmHg 70%
    20:00 +10°C° 0 mm 4 mps 753 mmHg 76%
    21:00 +10°C° 0 mm 3 mps 754 mmHg 78%
    22:00 +10°C° 0 mm 3 mps 754 mmHg 81%
    23:00 +9°C° 0 mm 3 mps 754 mmHg 83%

    1 June, Saturday

    Time Temperature Precipitation Wind Pressure Humidity
    00:00 +10°C° 0 mm 3 mps 754 mmHg 84%
    01:00 +10°C° 0 mm 3 mps 754 mmHg 84%
    02:00 +10°C° 0 mm 3 mps 754 mmHg 85%
    03:00 +10°C° 0 mm 3 mps 755 mmHg 86%
    04:00 +10°C° 0 mm 3 mps 755 mmHg 88%
    05:00 +9°C° 0 mm 3 mps 755 mmHg 89%
    06:00 +9°C° 0.2 mm 3 mps 755 mmHg 87%
    07:00 +8°C° 0.2 mm 4 mps 756 mmHg 85%
    08:00 +8°C° 0.2 mm 5 mps 756 mmHg 83%
    09:00 +8°C° 0.6 mm 5 mps 757 mmHg 82%
    10:00 +8°C° 0.6 mm 5 mps 757 mmHg 81%
    11:00 +8°C° 0.6 mm 5 mps 758 mmHg 80%
    12:00 +8°C° 1.4 mm 6 mps 758 mmHg 81%
    13:00 +8°C° 1.4 mm 6 mps 758 mmHg 81%
    14:00 +6°C° 1.4 mm 7 mps 758 mmHg 82%
    15:00 +6°C° 0.5 mm 7 mps 759 mmHg 80%
    16:00 +6°C° 0.5 mm 7 mps 760 mmHg 78%
    17:00 +5°C° 0.5 mm 8 mps 761 mmHg 77%
    18:00 +5°C° 0.1 mm 7 mps 762 mmHg 75%
    19:00 +5°C° 0.1 mm 7 mps 762 mmHg 74%
    20:00 +5°C° 0.1 mm 7 mps 763 mmHg 72%
    21:00 +5°C° 0 mm 6 mps 764 mmHg 71%
    22:00 +5°C° 0 mm 5 mps 764 mmHg 70%
    23:00 +5°C° 0 mm 5 mps 765 mmHg 69%
    Show more